CST,Max TemperatureF,Mean TemperatureF,Min TemperatureF,Max Dew PointF,MeanDew PointF,Min DewpointF,Max Humidity, Mean Humidity, Min Humidity, Max Sea Level PressureIn, Mean Sea Level PressureIn, Min Sea Level PressureIn, Max VisibilityMiles, Mean VisibilityMiles, Min VisibilityMiles, Max Wind SpeedMPH, Mean Wind SpeedMPH, Max Gust SpeedMPH,PrecipitationIn, CloudCover, Events, WindDirDegrees
2011-12-1,42,34,26,31,24,14,82,70,57,30.52,30.29,30.03,10,10,10,22,8,32,0.00,3,,2
2011-12-2,41,26,12,40,23,11,100,81,66,30.53,30.32,30.10,10,9,4,15,6,,0.09,4,Rain,182
2011-12-3,45,38,30,45,39,31,100,100,100,30.13,30.01,29.82,7,3,0,20,5,26,1.65,8,Fog-Rain-Snow-Thunderstorm,89
2011-12-4,35,28,21,30,25,19,100,87,70,30.40,30.22,30.06,10,10,10,17,9,24,0.00,2,,323
2011-12-5,25,21,17,20,17,12,100,88,74,30.53,30.46,30.36,10,8,2,17,8,25,0.00,6,Snow,349
2011-12-6,24,18,10,13,12,8,88,78,62,30.50,30.38,30.26,10,10,10,12,6,,0.00,2,,327
2011-12-7,37,23,9,23,17,7,92,78,55,30.24,30.17,30.09,10,10,10,12,5,,0.00,1,,265
2011-12-8,33,24,16,30,25,15,100,92,78,30.34,30.25,30.19,10,6,2,12,5,,0.00,6,Snow,360
2011-12-9,28,22,12,25,19,12,100,85,61,30.56,30.45,30.30,10,9,5,8,5,,0.02,6,Snow,341
2011-12-10,46,28,10,32,23,9,96,83,56,30.55,30.43,30.33,10,9,5,18,5,25,0.00,1,,203
2011-12-11,46,38,30,36,33,28,100,83,63,30.36,30.27,30.17,10,7,2,17,11,26,0.00,7,,189
2011-12-12,46,44,41,36,33,30,76,68,60,30.29,30.22,30.17,10,10,10,13,10,18,0.00,8,,177
2011-12-13,44,42,39,45,39,33,100,92,70,30.30,30.20,30.02,10,6,3,14,7,18,0.22,8,Rain,158
2011-12-14,61,51,39,58,46,36,100,96,75,30.02,29.85,29.67,10,5,1,18,8,24,0.45,7,Rain-Thunderstorm,166
2011-12-15,37,30,21,34,25,19,96,76,56,30.43,30.22,29.90,10,10,8,18,12,29,0.00,3,,316
2011-12-16,39,28,18,26,22,15,93,78,55,30.50,30.41,30.32,10,10,7,8,4,,0.00,0,,239
2011-12-17,50,38,25,32,27,22,92,74,46,30.38,30.33,30.27,10,10,10,13,5,,0.00,0,,267
2011-12-18,55,41,27,38,33,23,85,72,47,30.27,30.03,29.88,10,10,10,13,5,23,0.00,1,,187
2011-12-19,41,37,33,34,30,25,93,78,67,30.22,30.06,29.86,10,10,9,18,9,26,0.00,5,Snow,18
2011-12-20,33,32,30,31,28,25,96,89,72,30.18,29.96,29.81,10,5,1,16,9,26,0.14,8,Rain-Snow,351
2011-12-21,41,34,26,30,27,20,96,83,62,29.99,29.82,29.77,10,10,6,16,5,,0.00,2,,234
2011-12-22,34,26,17,28,22,14,88,75,59,30.48,30.26,30.00,10,9,2,21,11,28,0.01,5,Snow,350
2011-12-23,35,24,12,20,16,9,92,73,48,30.48,30.38,30.29,10,10,10,20,7,26,0.00,0,,249
2011-12-24,52,36,19,27,22,15,86,69,34,30.41,30.33,30.28,10,10,10,12,5,,0.00,0,,258
2011-12-25,50,38,23,28,23,19,85,66,39,30.48,30.39,30.32,10,10,10,10,6,,0.00,0,,288
2011-12-26,45,32,19,33,26,18,92,76,58,30.33,30.10,29.92,10,10,10,13,5,20,0.00,2,,204
2011-12-27,45,38,30,26,25,22,82,62,46,30.11,30.04,29.91,10,10,10,16,10,26,0.00,0,,304
2011-12-28,50,39,28,30,27,23,85,66,44,30.07,29.94,29.78,10,10,10,14,6,18,0.00,1,,213
2011-12-29,55,45,35,40,32,27,76,62,42,29.77,29.67,29.53,10,10,10,18,8,,0.01,3,Rain,229
2011-12-30,52,41,30,39,31,26,82,61,43,29.92,29.78,29.56,10,10,10,25,16,34,0.00,1,,292
2011-12-31,62,45,28,36,30,24,87,64,33,29.95,29.71,29.48,10,10,10,23,12,38,0.01,2,Rain,213